Regional Weather Roundup
Issued by NWS

Home | Current Version | Previous Version | Graphics & Text | Print | Product List | Glossary On
Versions: 1 2 3 4 5 6 7 8 9 10 11 12 13 14 15 16 17 18 19 20 21 22 23 24 25 26 27 28 29 30 31 32 33 34 35 36 37 38 39 40 41 42 43 44 45 46 47 48 49 50
000
ASUS43 KOAX 221310
RWRNE

WEATHER ROUNDUP FOR NEBRASKA
NATIONAL WEATHER SERVICE OMAHA NE
800 AM CDT SAT JUL 22 2017

NOTES: SATELLITE DATA IS BEING USED TO AUGMENT CLOUD COVER ABOVE
       12000 FEET.
       "FAIR" INDICATES FEW OR NO CLOUDS BELOW 12,000 FEET WITH NO
       SIGNIFICANT WEATHER AND/OR OBSTRUCTIONS TO VISIBILITY.


NEZ001>004-019>022-054>056-221400-
NEBRASKA PANHANDLE

CITY           SKY/WX    TMP DP  RH WIND       PRES   REMARKS
SCOTTSBLUFF    SUNNY     67  57  70 CALM      30.06R
ALLIANCE       MOSUNNY   62  57  83 CALM      30.05R
CHADRON        MOSUNNY   68  53  58 CALM      30.03R
GORDON         FAIR      67  62  85 CALM      30.03F
KIMBALL        SUNNY     66  55  66 NW6       30.13R
SIDNEY         PTSUNNY   66  56  70 NW8       30.09R
$$

NEZ057>060-069>072-079>082-221400-
SOUTHWEST NEBRASKA

CITY           SKY/WX    TMP DP  RH WIND       PRES   REMARKS
NORTH PLATTE   MOSUNNY   75  59  57 NW3       29.97R
IMPERIAL       MOSUNNY   72  58  61 NW7       30.03R
LEXINGTON      CLOUDY    75  66  72 NE7       29.92S
MCCOOK         MOSUNNY   77  59  53 N7        29.94R
OGALLALA       MOSUNNY   75  57  52 W7        30.03R
$$

NEZ005>010-023>029-035>040-094-221400-
NORTH CENTRAL NEBRASKA

CITY           SKY/WX    TMP DP  RH WIND       PRES   REMARKS
VALENTINE      PTSUNNY   73  58  59 NW3       29.96S
AINSWORTH      CLOUDY    69  64  86 W5        29.97R
BROKEN BOW     SUNNY     73  66  78 N5        29.95R
O`NEILL        PTSUNNY   74  74 100 S3        29.92R FOG
ORD            CLOUDY    75  71  87 N6        29.91R FOG
THEDFORD       MOSUNNY   75  62  63 NW3       30.00R
$$

NEZ041-046>049-061>064-073>077-083>087-221400-
SOUTH CENTRAL NEBRASKA

CITY           SKY/WX    TMP DP  RH WIND       PRES   REMARKS
GRAND ISLAND   SUNNY     76  70  82 N12       29.90R
AURORA         MOSUNNY   74  69  85 N5        29.88R
HASTINGS       SUNNY     74  68  81 NE5       29.90R
HEBRON         SUNNY     80  69  67 NW3       29.85R
HOLDREGE       MOSUNNY   75  66  73 N9        29.90S
KEARNEY        SUNNY     79  69  71 N8        29.91
YORK           CLOUDY    77  72  83 N8        29.87R
$$

NEZ011>018-030>034-042>045-221400-
NORTHEAST NEBRASKA

CITY           SKY/WX    TMP DP  RH WIND       PRES   REMARKS
NORFOLK        CLOUDY    77  73  87 CALM      29.86R
ALBION         CLOUDY    76  76  98 NE5       29.89R FOG
BLAIR          RAIN      77  76  96 CALM      29.81S VSB 1/2
COLUMBUS       CLOUDY    77  75  93 N6        29.86R FOG
FREMONT        CLOUDY    77  76  97 E3        29.82S FOG
TEKAMAH        CLOUDY    77  74  90 NE5       29.81R
WAYNE          CLOUDY    76  76  98 CALM      29.86R FOG
$$

NEZ050>053-065>068-078-088>093-221400-
SOUTHEAST NEBRASKA

CITY           SKY/WX    TMP DP  RH WIND       PRES   REMARKS
LINCOLN        CLOUDY    79  77  94 NE7       29.82S FOG
OMAHA EPPLEY   CLOUDY    79  75  87 NE6       29.80R
BEATRICE       SUNNY     79  66  65 CALM      29.83S
NEBRASKA CITY  SUNNY     80  70  71 W7        29.81S
PLATTSMOUTH    SUNNY     78  73  84 N3        29.81R
$$

NEZ044-045-051>053-067-221400-
OMAHA AREA

CITY           SKY/WX    TMP DP  RH WIND       PRES   REMARKS
OMAHA EPPLEY   CLOUDY    79  75  87 NE6       29.80R
BLAIR          RAIN      77  76  96 CALM      29.81S VSB 1/2
FREMONT        CLOUDY    77  76  97 E3        29.82S FOG
MILLARD        CLOUDY    81  78  90 CALM      29.81R FOG     HX  90
OFFUTT AFB     MOSUNNY   79  75  89 NE3       29.80R
PLATTSMOUTH    SUNNY     78  73  84 N3        29.81R
WAHOO          FOG       77  76  96 E3        29.82R VSB 1
$$




USA.gov is the U.S. government's official web portal to all federal, state and local government web resources and services.